Meteo pe oră la Dzierzazno

Astăzi, 2 Martie, Marţi

Timp Temperatura Precipitaţii Vânt Presiune Umiditate
00:00 -1°C° 0 mm 6 m/s 757 mmHg 88%
01:00 0°C° 0 mm 5 m/s 757 mmHg 89%
02:00 0°C° 0 mm 5 m/s 756 mmHg 89%
03:00 -1°C° 0 mm 6 m/s 756 mmHg 89%
04:00 -1°C° 0 mm 6 m/s 756 mmHg 90%
05:00 -1°C° 0 mm 6 m/s 756 mmHg 89%
06:00 -1°C° 0 mm 6 m/s 756 mmHg 89%
07:00 0°C° 0 mm 5 m/s 756 mmHg 89%
08:00 +1°C° 0 mm 5 m/s 756 mmHg 85%
09:00 +2°C° 0 mm 5 m/s 756 mmHg 80%
10:00 +3°C° 0 mm 5 m/s 756 mmHg 75%
11:00 +5°C° 0 mm 5 m/s 757 mmHg 73%
12:00 +5°C° 0 mm 5 m/s 757 mmHg 70%
13:00 +6°C° 0 mm 5 m/s 757 mmHg 68%
14:00 +6°C° 0 mm 4 m/s 757 mmHg 69%
15:00 +5°C° 0 mm 4 m/s 757 mmHg 71%
16:00 +5°C° 0 mm 3 m/s 757 mmHg 72%
17:00 +4°C° 0 mm 3 m/s 757 mmHg 79%
18:00 +4°C° 0 mm 2 m/s 757 mmHg 85%
19:00 +2°C° 0 mm 2 m/s 757 mmHg 92%
20:00 +3°C° 0 mm 1 m/s 757 mmHg 92%
21:00 +2°C° 0 mm 1 m/s 757 mmHg 92%
22:00 +2°C° 0 mm 1 m/s 757 mmHg 92%
23:00 +2°C° 0 mm 1 m/s 757 mmHg 92%

Mâine, 3 Martie, Miercuri

Timp Temperatura Precipitaţii Vânt Presiune Umiditate
00:00 +2°C° 0 mm 1 m/s 757 mmHg 91%
01:00 +2°C° 0 mm 1 m/s 757 mmHg 91%
02:00 +2°C° 0 mm 1 m/s 757 mmHg 91%
03:00 -1°C° 0 mm 2 m/s 756 mmHg 92%
04:00 -1°C° 0 mm 2 m/s 756 mmHg 92%
05:00 -1°C° 0 mm 2 m/s 755 mmHg 91%
06:00 -1°C° 0 mm 2 m/s 755 mmHg 91%
07:00 -1°C° 0 mm 2 m/s 755 mmHg 90%
08:00 +2°C° 0 mm 2 m/s 755 mmHg 83%
09:00 +3°C° 0 mm 2 m/s 754 mmHg 75%
10:00 +5°C° 0 mm 2 m/s 754 mmHg 67%
11:00 +5°C° 0 mm 3 m/s 754 mmHg 62%
12:00 +7°C° 0 mm 3 m/s 753 mmHg 56%
13:00 +8°C° 0 mm 3 m/s 753 mmHg 50%
14:00 +8°C° 0 mm 3 m/s 752 mmHg 51%
15:00 +8°C° 0 mm 3 m/s 751 mmHg 52%
16:00 +8°C° 0 mm 3 m/s 750 mmHg 53%
17:00 +7°C° 0 mm 3 m/s 750 mmHg 61%
18:00 +5°C° 0 mm 3 m/s 749 mmHg 68%
19:00 +4°C° 0 mm 4 m/s 748 mmHg 76%
20:00 +3°C° 0 mm 4 m/s 748 mmHg 80%
21:00 +3°C° 0 mm 4 m/s 747 mmHg 83%
22:00 +2°C° 0 mm 5 m/s 746 mmHg 87%
23:00 +2°C° 0 mm 5 m/s 745 mmHg 89%

Poimâine, 4 Martie, Joi

Timp Temperatura Precipitaţii Vânt Presiune Umiditate
00:00 +2°C° 0 mm 5 m/s 745 mmHg 90%
01:00 +1°C° 0 mm 5 m/s 744 mmHg 92%
02:00 +1°C° 0 mm 5 m/s 744 mmHg 92%
03:00 +1°C° 0 mm 5 m/s 743 mmHg 93%
04:00 +1°C° 0 mm 5 m/s 742 mmHg 93%
05:00 +1°C° 0 mm 5 m/s 742 mmHg 91%
06:00 +1°C° 0 mm 5 m/s 742 mmHg 90%
07:00 +1°C° 0 mm 5 m/s 742 mmHg 88%
08:00 +1°C° 0 mm 4 m/s 742 mmHg 87%
09:00 +1°C° 0 mm 4 m/s 742 mmHg 86%
10:00 0°C° 0 mm 4 m/s 743 mmHg 86%
11:00 0°C° 0.1 mm 4 m/s 743 mmHg 88%
12:00 -1°C° 0.1 mm 5 m/s 743 mmHg 90%
13:00 -1°C° 0.1 mm 5 m/s 744 mmHg 93%
14:00 -1°C° 0.1 mm 5 m/s 744 mmHg 90%
15:00 -1°C° 0.1 mm 5 m/s 744 mmHg 87%
16:00 -2°C° 0.1 mm 5 m/s 744 mmHg 84%
17:00 -2°C° 0 mm 5 m/s 744 mmHg 81%
18:00 -3°C° 0 mm 4 m/s 744 mmHg 78%
19:00 -2°C° 0 mm 3 m/s 745 mmHg 75%
20:00 -2°C° 0 mm 3 m/s 745 mmHg 75%
21:00 -2°C° 0 mm 3 m/s 745 mmHg 75%
22:00 -4°C° 0 mm 3 m/s 745 mmHg 75%
23:00 -4°C° 0 mm 3 m/s 745 mmHg 74%

5 Martie, Vineri

Timp Temperatura Precipitaţii Vânt Presiune Umiditate
00:00 -4°C° 0 mm 3 m/s 745 mmHg 73%
01:00 -2°C° 0 mm 3 m/s 746 mmHg 73%
02:00 -3°C° 0 mm 2 m/s 746 mmHg 72%
03:00 -3°C° 0 mm 2 m/s 746 mmHg 71%
04:00 -3°C° 0 mm 2 m/s 746 mmHg 70%
05:00 -3°C° 0 mm 2 m/s 746 mmHg 69%
06:00 -2°C° 0 mm 3 m/s 746 mmHg 69%
07:00 -2°C° 0 mm 3 m/s 746 mmHg 68%
08:00 -1°C° 0 mm 3 m/s 747 mmHg 62%
09:00 -1°C° 0 mm 4 m/s 747 mmHg 56%
10:00 0°C° 0 mm 4 m/s 747 mmHg 50%
11:00 0°C° 0.1 mm 4 m/s 747 mmHg 49%
12:00 0°C° 0.1 mm 4 m/s 748 mmHg 49%
13:00 0°C° 0.1 mm 5 m/s 748 mmHg 48%
14:00 0°C° 0.1 mm 5 m/s 748 mmHg 53%
15:00 -1°C° 0.1 mm 5 m/s 748 mmHg 57%
16:00 -1°C° 0.1 mm 5 m/s 748 mmHg 61%
17:00 -2°C° 0 mm 5 m/s 749 mmHg 63%
18:00 -4°C° 0 mm 5 m/s 749 mmHg 65%
19:00 -4°C° 0 mm 5 m/s 750 mmHg 67%
20:00 -4°C° 0 mm 4 m/s 750 mmHg 65%
21:00 -4°C° 0 mm 4 m/s 751 mmHg 62%
22:00 -4°C° 0 mm 4 m/s 751 mmHg 60%
23:00 -4°C° 0 mm 4 m/s 752 mmHg 60%

6 Martie, Sâmbătă

Timp Temperatura Precipitaţii Vânt Presiune Umiditate
00:00 -4°C° 0 mm 4 m/s 752 mmHg 60%
01:00 -4°C° 0 mm 4 m/s 753 mmHg 60%
02:00 -4°C° 0 mm 3 m/s 753 mmHg 59%
03:00 -4°C° 0 mm 3 m/s 753 mmHg 59%
04:00 -4°C° 0 mm 3 m/s 753 mmHg 58%
05:00 -4°C° 0 mm 3 m/s 753 mmHg 58%
06:00 -3°C° 0 mm 2 m/s 753 mmHg 58%
07:00 -3°C° 0 mm 2 m/s 753 mmHg 58%
08:00 -2°C° 0 mm 3 m/s 753 mmHg 55%
09:00 -2°C° 0 mm 4 m/s 753 mmHg 51%
10:00 -1°C° 0 mm 4 m/s 753 mmHg 47%
11:00 0°C° 0 mm 5 m/s 753 mmHg 46%
12:00 -1°C° 0 mm 6 m/s 753 mmHg 44%
13:00 +1°C° 0 mm 6 m/s 752 mmHg 43%
14:00 -1°C° 0 mm 7 m/s 752 mmHg 49%
15:00 -1°C° 0 mm 7 m/s 751 mmHg 54%
16:00 -1°C° 0 mm 7 m/s 750 mmHg 60%
17:00 -2°C° 0.1 mm 8 m/s 750 mmHg 71%
18:00 -2°C° 0.1 mm 8 m/s 749 mmHg 82%
19:00 -2°C° 0.1 mm 8 m/s 749 mmHg 93%
20:00 -2°C° 0 mm 8 m/s 749 mmHg 91%
21:00 -2°C° 0 mm 8 m/s 748 mmHg 89%
22:00 -1°C° 0 mm 8 m/s 748 mmHg 88%
23:00 -2°C° 0 mm 8 m/s 747 mmHg 87%

7 Martie, Duminică

Timp Temperatura Precipitaţii Vânt Presiune Umiditate
00:00 -3°C° 0 mm 9 m/s 747 mmHg 86%
01:00 -3°C° 0 mm 9 m/s 746 mmHg 85%
02:00 -3°C° 0 mm 9 m/s 746 mmHg 86%
03:00 -3°C° 0 mm 9 m/s 745 mmHg 86%
04:00 -3°C° 0 mm 9 m/s 745 mmHg 86%
05:00 -3°C° 0 mm 9 m/s 744 mmHg 87%
06:00 -3°C° 0 mm 10 m/s 744 mmHg 88%
07:00 -3°C° 0 mm 10 m/s 744 mmHg 90%
08:00 -3°C° 0.1 mm 10 m/s 743 mmHg 91%
09:00 -3°C° 0.1 mm 10 m/s 743 mmHg 92%
10:00 -3°C° 0.1 mm 9 m/s 743 mmHg 93%
11:00 -3°C° 0.2 mm 9 m/s 742 mmHg 93%
12:00 -3°C° 0.2 mm 9 m/s 742 mmHg 93%
13:00 -3°C° 0.2 mm 9 m/s 742 mmHg 94%
14:00 -3°C° 0.7 mm 9 m/s 741 mmHg 94%
15:00 -3°C° 0.7 mm 9 m/s 741 mmHg 95%
16:00 -2°C° 0.7 mm 8 m/s 741 mmHg 95%
17:00 -3°C° 1.1 mm 7 m/s 741 mmHg 94%
18:00 -4°C° 1.1 mm 7 m/s 741 mmHg 93%
19:00 -5°C° 1.1 mm 6 m/s 742 mmHg 93%
20:00 -5°C° 0.3 mm 5 m/s 742 mmHg 89%
21:00 -4°C° 0.3 mm 4 m/s 743 mmHg 85%
22:00 -5°C° 0.3 mm 3 m/s 744 mmHg 81%
23:00 -5°C° 0.1 mm 4 m/s 745 mmHg 80%
Arată mai mult

Formular de consimțământ

Meteoprog și furnizorii noștri de servicii pot stoca și accesa date personale, precum cookies, identificatori de dispozitiv sau alte tehnologii similare pe dispozitivul dumneavoastră și procesa astfel de date pentru a personaliza conținutul și reclamele, dar și pentru a oferi caracteristici de social media și pentru a analiza traficul.

  • Stocarea și/sau accesarea informațiilor pe dispozitivul dumneavoastră

    Cookies, identificatori de dispozitiv sau alte informații pot fi stocate sau accesate pe dispozitiv în scopurile indicate mai sus.

  • Reclame și conținut personalizat, evaluarea reclamelor și a conținutului, informații despre audiențe și dezvoltarea produselor

    Reclamele și conținutul pot fi personalizate pe baza unui profil. Pot fi adăugate date suplimentare pentru a personaliza mai bine reclamele și conținutul. Performanța reclamelor și conținutului poate fi măsurată. Pot fi obținute informații despre utilizatorii care au văzut reclamele și conținutul. Aceste date pot fi utilizate pentru a dezvolta sau îmbunătăți experiența utilizatorilor, sistemele și software-ul.

Dând clic pe ‘Sunt de acord’, permiteți utilizarea cookie-urilor menționate, a identificatorilor de dispozitiv, balizelor web sau altor tehnologii similare. Setările pot fi modificate din browser-ul dispozitivului dumneavoastră.

În anumite scopuri, interesele legitime pot prima asupra consimțământului. Puteți citi mai multe informații în acest sens în Politica privind Confidențialitatea Datelor și Cookie.